Temperature
8 9 9 9 9 10 10 10 10 10 10 10 10 10 10 9 9 9 9 9 9 8 8 7 7 6 5 4 4 3 3 3 2 1 1 0 0 -0 -1 -2 -2 -2 -2
7 7 8 8 8 8 8 9 9 9 9 9 9 9 8 8 8 8 8 8 7 7 6 6 5 4 3 3 2 2 2 1 1 -0 -1 -1 -1 -2 -2 -2 -2 -2 -2
6 6 7 7 7 7 7 7 7 7 7 7 7 7 7 7 7 7 6 6 5 5 4 3 3 2 2 2 1 1 1 0 -1 -1 -2 -2 -2 -3 -3 -3 -3 -3 -3
5 5 5 5 5 5 5 6 6 6 6 6 6 6 6 5 5 5 4 4 3 3 2 2 1 1 1 1 0 -0 -1 -1 -2 -3 -3 -4 -4 -4 -5 -5 -5 -5 -4
4 4 4 4 4 4 4 4 4 4 4 4 4 4 4 3 3 3 3 2 2 1 1 1 0 0 -0 -0 -1 -1 -2 -3 -4 -4 -5 -5 -5 -6 -6 -6 -6 -6 -5
3 3 3 3 3 2 3 3 2 2 2 2 2 1 1 1 1 1 1 1 1 0 0 -0 -1 -1 -1 -1 -2 -2 -3 -4 -5 -5 -6 -6 -6 -7 -7 -7 -7 -7 -7
2 2 2 2 1 1 1 1 1 0 0 0 0 -0 -0 -0 -1 -0 -0 -0 -1 -1 -1 -1 -2 -2 -2 -3 -3 -3 -4 -4 -5 -6 -6 -7 -7 -7 -7 -7 -8 -8 -7
1 1 1 1 0 0 0 0 -0 -1 -1 -1 -1 -1 -1 -1 -1 -1 -1 -1 -2 -2 -2 -3 -3 -3 -3 -3 -4 -4 -5 -5 -6 -6 -7 -7 -7 -7 -8 -8 -8 -8 -7
0 -0 -0 -0 -0 -0 -0 -1 -1 -1 -1 -1 -1 -1 -2 -2 -2 -2 -2 -2 -3 -3 -3 -3 -4 -4 -4 -5 -5 -5 -6 -6 -6 -6 -6 -6 -6 -7 -7 -7 -7 -8 -8
-1 -1 -1 -1 -1 -1 -1 -1 -1 -1 -1 -1 -2 -2 -2 -3 -3 -3 -3 -3 -4 -4 -4 -4 -4 -5 -5 -6 -6 -6 -7 -7 -7 -6 -6 -6 -6 -6 -7 -7 -7 -8 -8
-1 -1 -1 -1 -1 -1 -1 -1 -1 -1 -1 -2 -2 -2 -3 -3 -4 -4 -4 -4 -5 -5 -5 -6 -6 -6 -6 -7 -7 -7 -7 -7 -7 -6 -6 -6 -6 -7 -7 -7 -7 -7 -8
-1 -1 -1 -1 -1 -1 -1 -1 -1 -2 -2 -2 -3 -3 -4 -4 -4 -5 -5 -5 -6 -6 -6 -7 -7 -6 -7 -7 -7 -7 -7 -7 -7 -7 -7 -6 -6 -6 -7 -7 -7 -7 -7
-1 -1 -1 -1 -1 -1 -1 -1 -2 -2 -2 -3 -4 -4 -4 -5 -5 -5 -6 -6 -6 -7 -7 -7 -7 -7 -7 -7 -7 -7 -7 -7 -7 -7 -7 -7 -7 -7 -6 -6 -6 -6 -6
-1 -1 -1 -1 -1 -1 -2 -2 -2 -3 -3 -4 -4 -5 -5 -6 -6 -6 -7 -7 -7 -7 -7 -7 -7 -7 -7 -7 -7 -7 -7 -7 -7 -7 -7 -7 -7 -7 -7 -7 -7 -6 -6
-1 -1 -1 -1 -1 -2 -2 -2 -3 -3 -3 -4 -5 -5 -6 -6 -7 -7 -7 -8 -8 -8 -7 -7 -7 -7 -7 -7 -7 -7 -7 -7 -7 -7 -7 -7 -7 -7 -7 -7 -7 -7 -7
-1 -1 -1 -1 -2 -2 -2 -3 -3 -3 -4 -4 -5 -5 -6 -6 -7 -7 -7 -8 -7 -7 -7 -8 -8 -8 -8 -7 -7 -7 -8 -8 -8 -8 -8 -8 -7 -7 -7 -7 -7 -7 -7
-1 -1 -1 -1 -2 -2 -3 -3 -4 -4 -4 -5 -5 -6 -6 -6 -7 -7 -7 -7 -7 -7 -8 -8 -8 -8 -8 -8 -8 -8 -8 -8 -8 -8 -8 -8 -8 -8 -8 -7 -8 -8 -8
-1 -1 -1 -2 -2 -3 -3 -3 -4 -4 -5 -5 -5 -6 -6 -6 -7 -7 -7 -7 -8 -8 -8 -8 -8 -8 -8 -8 -8 -8 -8 -8 -8 -8 -8 -8 -8 -8 -8 -8 -8 -8 -8
-1 -1 -1 -2 -2 -3 -3 -4 -4 -4 -5 -5 -6 -6 -6 -7 -7 -7 -7 -7 -8 -8 -8 -8 -8 -8 -8 -8 -8 -8 -8 -8 -8 -8 -8 -8 -8 -8 -8 -8 -8 -8 -8
-1 -1 -2 -2 -2 -3 -3 -4 -4 -5 -5 -6 -6 -6 -7 -7 -7 -7 -8 -8 -8 -8 -8 -8 -8 -8 -8 -8 -8 -8 -8 -8 -8 -8 -8 -8 -8 -8 -8 -8 -8 -8 -8
-1 -1 -2 -2 -3 -3 -4 -4 -4 -5 -5 -6 -6 -7 -7 -7 -7 -8 -8 -8 -8 -8 -8 -8 -8 -8 -8 -9 -9 -8 -8 -8 -9 -9 -8 -8 -8 -8 -8 -8 -8 -8 -8
-1 -1 -2 -2 -3 -3 -4 -4 -5 -5 -6 -6 -6 -7 -7 -7 -8 -8 -8 -8 -8 -8 -8 -8 -8 -8 -9 -9 -9 -9 -8 -8 -9 -9 -9 -9 -8 -8 -8 -8 -8 -8 -8
-1 -2 -2 -2 -3 -3 -4 -4 -5 -5 -6 -6 -6 -7 -7 -7 -8 -8 -8 -8 -8 -8 -8 -8 -8 -8 -8 -9 -9 -9 -9 -9 -9 -9 -9 -9 -8 -8 -8 -8 -8 -8 -8
-2 -2 -2 -2 -3 -3 -4 -4 -5 -5 -6 -6 -7 -7 -7 -8 -8 -8 -8 -8 -8 -8 -8 -8 -8 -8 -8 -9 -9 -9 -9 -9 -9 -9 -9 -9 -9 -8 -8 -8 -8 -8 -8
-2 -2 -2 -3 -3 -3 -4 -4 -5 -5 -6 -6 -7 -7 -7 -8 -8 -8 -8 -8 -8 -8 -8 -8 -8 -8 -8 -8 -8 -9 -9 -9 -9 -9 -9 -9 -9 -9 -8 -8 -8 -8 -8
-2 -2 -2 -3 -3 -4 -4 -4 -5 -6 -6 -6 -7 -7 -7 -8 -8 -8 -8 -8 -8 -8 -8 -8 -8 -8 -8 -8 -8 -9 -9 -9 -9 -9 -9 -9 -9 -9 -8 -8 -8 -8 -8
Wind_Speed
10 9 9 8 7 7 5 5 4 3 3 2 2 3 4 6 7 8 9 10 11 10 9 10 10 9 7 6 5 4 4 3 2 1 2 3 4 6 8 11 12 13 14
9 9 8 8 7 7 6 6 4 3 3 2 3 5 7 7 8 10 11 11 12 12 11 11 10 8 8 6 5 4 3 2 2 3 3 4 6 7 9 10 11 12 14
9 8 9 9 9 8 8 8 8 7 8 8 8 8 9 9 10 10 11 11 11 11 11 11 10 9 7 5 4 4 3 2 2 3 4 4 6 6 8 9 11 11 14
9 9 10 10 10 10 10 10 10 10 10 10 11 11 11 11 11 12 12 13 12 11 10 9 8 7 6 5 4 3 3 3 4 4 5 5 6 7 7 8 9 9 10
9 10 10 10 11 11 12 12 12 12 12 12 12 12 12 11 11 12 12 12 12 11 10 8 7 7 5 3 2 2 3 3 4 4 5 6 6 6 7 8 10 11 12
10 10 9 10 11 11 12 12 13 13 13 13 13 13 12 11 17 17 14 11 10 10 9 7 6 5 4 2 0 2 3 4 4 5 6 7 8 8 8 8 10 11 10
9 9 9 10 11 11 11 12 12 12 12 13 13 13 13 15 18 17 16 10 9 8 7 5 4 3 2 0 1 2 3 4 6 7 8 9 9 9 9 11 11 12 13
9 9 9 9 10 10 11 11 11 10 10 10 11 11 11 13 16 16 14 9 8 7 5 3 2 1 1 3 3 3 4 5 6 7 8 9 9 9 10 11 12 13 14
8 8 8 8 9 9 10 10 9 9 10 9 9 10 10 10 12 12 9 6 5 5 3 2 2 2 3 5 5 5 6 6 6 9 12 13 15 16 13 9 10 10 11
7 7 8 8 9 9 9 9 8 8 9 9 9 9 8 8 9 9 6 3 3 2 2 2 3 4 6 6 5 6 7 7 7 8 9 10 11 11 11 9 8 8 8
6 7 8 8 8 8 8 8 8 8 8 8 8 7 7 7 7 7 5 3 2 2 2 3 3 6 7 8 7 6 8 9 8 8 8 8 7 6 6 7 7 7 9
7 7 7 7 7 7 8 7 7 7 7 6 6 6 5 5 6 6 6 5 4 3 3 3 4 8 9 8 7 7 9 9 6 6 7 7 6 6 6 8 10 12 13
7 7 7 7 7 6 6 6 5 5 4 4 3 3 3 3 3 5 5 5 6 4 3 5 7 8 8 6 6 8 7 5 5 6 6 7 7 8 8 9 10 11 14
7 7 6 6 6 6 5 4 4 4 3 3 2 2 2 2 2 3 3 3 4 4 4 5 6 6 5 6 5 4 4 4 5 6 7 7 8 8 8 8 9 9 9
7 6 6 5 5 5 5 4 4 4 3 2 2 1 1 2 3 6 5 4 5 5 6 4 4 4 4 4 4 4 4 4 5 6 6 7 8 8 8 8 8 8 8
6 6 4 4 4 4 4 4 5 4 4 3 2 2 2 3 5 6 6 7 7 7 5 4 5 5 5 5 5 5 5 5 5 6 7 7 8 8 9 9 8 9 10
6 6 4 4 4 3 3 2 2 2 3 3 3 3 3 4 5 6 7 7 6 5 4 4 4 5 5 5 5 6 6 6 6 7 7 8 8 8 9 9 9 10 11
6 6 5 4 4 3 2 2 1 1 1 1 1 3 4 5 5 6 6 6 4 3 4 4 5 5 5 6 6 6 7 7 7 7 8 8 8 9 9 10 10 11 12
6 5 4 4 4 3 2 2 1 1 1 2 2 2 4 5 5 4 5 4 4 4 4 5 5 6 6 6 7 7 7 8 8 8 8 9 8 9 10 10 11 15 14
5 7 6 4 4 3 3 2 2 2 2 3 3 3 4 4 4 4 4 4 4 5 5 6 6 6 7 7 7 7 8 8 9 8 9 9 9 9 11 12 12 12 12
6 7 8 5 4 4 3 3 3 3 3 3 4 4 6 5 5 5 5 5 5 5 6 6 7 7 7 7 7 8 9 9 9 9 9 9 9 10 10 11 12 13 13
6 6 6 5 4 4 4 3 3 3 4 4 4 4 6 5 5 5 5 6 6 6 6 7 7 7 7 7 8 8 9 10 10 9 9 10 10 11 11 12 12 12 13
7 7 6 5 4 5 4 4 4 4 4 4 4 4 4 5 5 5 6 6 6 6 7 7 7 8 9 9 10 9 10 10 10 10 11 11 11 11 12 13 15 16 15
7 7 6 5 5 5 4 4 4 4 4 4 5 5 5 5 6 7 7 7 7 7 8 8 9 11 14 13 13 13 14 15 15 13 14 14 14 13 13 13 15 16 16
7 7 7 6 5 5 5 4 4 4 5 5 5 5 5 6 6 7 7 7 8 8 10 11 11 12 14 16 16 17 19 22 22 19 17 13 15 15 15 16 15 16 16
8 7 7 6 5 5 5 5 5 5 5 5 5 5 6 6 7 7 7 7 7 8 9 10 12 14 17 17 19 20 22 23 24 25 20 13 14 14 15 14 18 17 17
Wind_Direction
348 343 341 339 337 332 324 320 314 306 294 261 217 182 161 151 148 144 142 141 137 132 132 130 123 121 114 103 97 96 90 97 157 183 195 206 234 256 266 270 276 281 283
355 357 359 1 5 7 8 9 16 31 44 67 104 116 118 122 127 131 131 132 131 129 127 122 119 115 107 106 110 111 111 117 173 226 225 230 248 263 274 278 281 282 282
10 17 22 24 26 30 33 37 47 58 66 73 84 93 99 104 108 112 115 115 113 115 117 118 119 119 117 117 118 122 131 158 201 235 249 250 259 265 276 279 282 283 284
28 36 39 39 41 44 48 53 58 64 70 74 78 83 88 92 96 100 102 103 101 99 98 101 105 112 120 128 133 146 166 198 219 239 257 265 269 274 277 287 293 294 294
44 47 46 48 53 56 59 61 63 66 70 74 79 81 83 86 91 95 96 98 98 95 89 88 92 102 117 130 148 179 204 226 242 255 265 274 277 284 288 296 296 300 298
53 53 53 56 59 61 63 66 68 69 71 74 76 77 77 83 93 94 96 93 94 96 96 93 95 92 95 93 150 242 246 254 261 268 275 278 283 289 295 296 297 299 301
61 60 60 64 66 67 68 70 71 72 74 77 78 80 82 86 89 90 90 90 90 91 94 98 99 92 75 316 283 280 279 282 277 278 278 279 287 293 295 293 290 289 287
67 66 67 69 71 71 72 72 73 74 75 75 77 82 86 89 90 90 90 89 92 93 92 89 81 54 360 311 296 292 286 279 278 276 276 281 283 287 286 284 286 286 285
69 67 70 75 79 77 76 74 75 78 76 75 75 77 82 87 91 93 91 92 92 89 78 54 13 340 325 306 298 295 294 290 280 277 280 282 285 286 287 286 283 284 289
71 72 76 79 83 82 80 79 78 80 81 80 76 74 80 86 89 90 79 74 73 63 41 14 356 329 322 319 309 298 296 303 303 294 286 283 283 281 277 266 269 273 280
84 84 82 81 84 86 85 83 86 88 88 85 83 77 74 73 79 74 60 40 30 8 348 342 344 331 325 323 313 298 298 302 299 296 295 294 292 286 280 273 265 258 265
92 86 83 83 86 90 91 89 90 94 94 91 89 81 70 63 54 51 39 29 11 349 338 334 332 329 324 319 311 304 302 301 293 293 293 295 299 299 297 292 281 269 260
101 94 91 90 87 91 95 97 94 90 91 90 87 82 70 52 44 32 18 10 0 341 332 332 327 325 318 307 303 307 304 293 290 290 292 295 297 297 297 293 287 278 271
115 109 106 101 96 92 89 88 90 89 92 91 84 77 60 23 6 354 345 341 336 328 318 315 313 310 302 301 305 299 293 294 296 291 294 296 297 295 292 293 296 301 298
126 120 114 107 106 99 90 80 82 77 60 65 66 39 354 350 354 344 338 334 333 331 322 310 313 318 319 318 310 304 300 292 289 292 294 295 296 296 294 295 291 294 289
139 136 130 126 121 118 115 104 74 70 77 66 44 350 321 324 333 333 331 331 329 330 317 309 316 320 320 319 315 312 307 301 298 297 293 291 292 295 296 296 290 288 288
152 149 146 146 144 139 137 138 133 101 85 63 33 2 344 336 333 330 330 329 325 326 310 312 312 312 310 306 303 301 299 298 297 290 287 287 288 290 291 294 295 293 291
155 154 157 156 154 155 157 157 165 204 248 277 349 336 336 334 330 330 332 322 307 308 308 305 305 304 301 299 297 295 295 295 291 287 285 283 283 285 288 291 292 293 294
163 163 162 159 160 163 166 174 190 227 275 292 297 299 320 318 312 320 325 309 308 307 305 300 297 295 294 292 290 289 288 287 287 286 284 282 282 283 285 287 290 292 293
172 169 166 166 168 174 183 197 217 245 268 281 290 303 308 303 303 309 307 299 294 294 296 294 293 290 289 287 287 286 286 286 286 282 282 284 284 283 284 287 289 291 292
171 172 174 175 183 190 199 214 231 251 267 279 286 293 300 299 296 298 298 295 292 292 293 292 290 288 284 282 282 282 283 283 283 282 283 285 286 286 286 286 287 287 289
174 175 181 187 191 198 208 220 236 252 264 274 284 289 295 289 286 289 292 292 291 287 286 286 285 283 282 281 281 281 281 281 282 283 283 285 287 287 287 286 287 289 292
178 179 184 190 196 203 210 224 237 249 260 270 279 285 287 286 289 290 290 291 291 288 285 281 280 280 280 278 275 273 274 277 280 284 287 287 286 286 286 287 289 292 293
183 186 189 192 197 208 218 229 238 249 259 268 274 278 282 284 286 288 288 289 289 288 285 281 278 279 282 284 281 276 272 274 279 279 277 277 280 284 286 287 290 292 293
187 189 193 197 202 210 220 230 240 248 256 262 269 275 279 282 284 286 287 286 287 285 286 286 282 282 283 284 283 282 282 285 286 285 281 280 283 285 288 291 293 295 295
190 193 195 198 204 211 219 229 238 247 254 261 265 270 275 278 280 283 285 284 286 287 288 288 284 286 288 289 287 287 290 293 295 295 294 290 290 290 292 293 295 296 295
Height
1462 1460 1458 1457 1456 1455 1454 1453 1452 1451 1451 1450 1450 1451 1451 1452 1453 1454 1456 1457 1459 1461 1463 1465 1466 1469 1471 1472 1474 1477 1479 1480 1482 1482 1483 1483 1483 1483 1482 1480 1478 1475 1473
1458 1456 1454 1453 1452 1450 1449 1448 1447 1447 1446 1445 1445 1445 1446 1447 1448 1449 1451 1452 1454 1456 1458 1460 1462 1465 1467 1469 1472 1473 1475 1476 1478 1478 1478 1478 1478 1477 1475 1474 1471 1469 1466
1456 1454 1452 1450 1449 1447 1446 1445 1444 1443 1443 1442 1442 1442 1443 1443 1444 1446 1447 1449 1451 1453 1455 1458 1461 1463 1466 1467 1469 1470 1471 1472 1473 1473 1473 1472 1472 1471 1469 1467 1465 1462 1460
1455 1453 1451 1449 1448 1446 1445 1444 1443 1442 1441 1441 1441 1441 1441 1442 1443 1445 1446 1448 1450 1453 1455 1458 1460 1462 1464 1465 1466 1467 1468 1468 1469 1468 1468 1468 1467 1466 1464 1462 1459 1457 1454
1455 1453 1451 1449 1448 1446 1445 1444 1443 1442 1442 1441 1441 1442 1442 1443 1444 1446 1447 1449 1451 1453 1456 1458 1460 1461 1462 1463 1464 1464 1464 1464 1464 1464 1464 1463 1463 1462 1460 1457 1455 1451 1448
1455 1453 1452 1450 1449 1447 1446 1445 1445 1444 1444 1444 1444 1444 1445 1446 1447 1449 1450 1452 1453 1455 1456 1458 1459 1460 1460 1460 1461 1461 1461 1461 1460 1460 1459 1459 1458 1458 1455 1453 1450 1447 1443
1456 1455 1453 1452 1451 1450 1449 1448 1448 1448 1448 1448 1448 1448 1449 1450 1451 1452 1453 1455 1455 1456 1457 1457 1457 1458 1458 1458 1458 1457 1457 1456 1456 1456 1455 1454 1454 1452 1450 1448 1446 1443 1439
1457 1456 1455 1454 1453 1453 1452 1452 1452 1452 1452 1452 1452 1453 1453 1454 1454 1455 1456 1456 1456 1456 1456 1456 1456 1456 1456 1456 1455 1454 1454 1453 1452 1451 1450 1449 1448 1447 1445 1443 1441 1437 1433
1460 1459 1458 1457 1457 1456 1456 1456 1456 1456 1456 1456 1456 1457 1457 1457 1457 1457 1458 1457 1457 1456 1456 1456 1455 1455 1454 1453 1452 1451 1451 1450 1448 1447 1446 1445 1443 1442 1440 1438 1436 1432 1428
1462 1461 1461 1460 1460 1460 1460 1460 1460 1460 1460 1460 1460 1460 1460 1459 1459 1459 1458 1458 1457 1456 1456 1455 1453 1453 1451 1450 1450 1449 1448 1447 1446 1444 1443 1441 1440 1438 1436 1434 1431 1428 1424
1464 1464 1464 1464 1463 1463 1463 1463 1463 1463 1463 1463 1462 1462 1461 1461 1460 1459 1458 1458 1457 1456 1454 1453 1452 1450 1449 1448 1447 1446 1445 1444 1442 1441 1439 1438 1436 1434 1432 1429 1426 1423 1419
1467 1467 1466 1466 1466 1466 1466 1466 1466 1465 1465 1464 1464 1463 1463 1462 1461 1459 1458 1457 1456 1454 1453 1452 1450 1449 1447 1446 1445 1444 1442 1441 1440 1438 1436 1434 1432 1430 1427 1425 1422 1418 1414
1469 1469 1469 1469 1469 1468 1468 1468 1467 1467 1466 1466 1465 1464 1463 1462 1460 1459 1458 1456 1454 1453 1452 1450 1448 1447 1445 1444 1443 1441 1440 1438 1437 1435 1433 1431 1429 1426 1423 1419 1416 1412 1408
1470 1471 1471 1471 1470 1470 1470 1469 1468 1468 1467 1466 1465 1464 1463 1461 1460 1458 1457 1455 1453 1452 1450 1448 1447 1445 1444 1442 1440 1439 1437 1436 1434 1432 1429 1427 1424 1421 1418 1415 1411 1406 1402
1471 1472 1472 1472 1471 1471 1470 1469 1469 1468 1467 1466 1465 1463 1462 1461 1459 1457 1456 1454 1452 1450 1449 1447 1445 1444 1442 1440 1439 1437 1435 1433 1431 1428 1426 1423 1420 1417 1414 1410 1406 1402 1397
1472 1472 1472 1472 1472 1471 1470 1469 1468 1468 1466 1465 1463 1462 1460 1459 1457 1456 1454 1452 1450 1449 1447 1445 1444 1442 1440 1438 1436 1434 1432 1430 1428 1425 1422 1419 1416 1413 1409 1406 1402 1397 1392
1472 1472 1472 1472 1471 1471 1470 1469 1468 1467 1465 1464 1462 1461 1459 1457 1456 1454 1452 1450 1449 1447 1445 1444 1442 1440 1438 1436 1433 1431 1429 1427 1424 1421 1418 1415 1412 1408 1405 1401 1397 1392 1387
1471 1471 1471 1471 1471 1470 1469 1468 1467 1466 1464 1462 1461 1459 1457 1455 1453 1452 1450 1448 1447 1445 1443 1441 1439 1437 1435 1433 1430 1428 1425 1423 1420 1417 1414 1411 1408 1404 1400 1396 1392 1387 1382
1470 1470 1470 1470 1469 1469 1468 1467 1466 1464 1463 1461 1459 1457 1455 1453 1451 1449 1447 1446 1444 1442 1441 1439 1436 1434 1432 1429 1427 1424 1421 1419 1416 1413 1410 1407 1403 1399 1395 1391 1387 1382 1378
1468 1469 1469 1468 1468 1467 1466 1465 1464 1462 1461 1459 1457 1455 1453 1451 1449 1447 1445 1443 1441 1439 1437 1435 1433 1431 1428 1426 1423 1420 1417 1414 1411 1408 1405 1402 1398 1395 1391 1386 1382 1377 1372
1466 1466 1467 1466 1466 1465 1464 1463 1462 1460 1458 1457 1455 1452 1450 1448 1446 1444 1442 1440 1438 1436 1434 1432 1430 1427 1425 1422 1419 1416 1413 1410 1407 1403 1400 1397 1393 1389 1385 1381 1377 1372 1367
1464 1464 1464 1464 1463 1463 1462 1461 1459 1457 1456 1454 1452 1450 1447 1445 1443 1441 1439 1436 1434 1432 1430 1428 1425 1423 1420 1417 1414 1411 1408 1405 1402 1398 1395 1391 1388 1384 1380 1375 1371 1367 1362
1460 1461 1461 1461 1460 1460 1459 1458 1456 1454 1453 1451 1449 1446 1444 1442 1440 1437 1435 1433 1431 1428 1426 1424 1421 1419 1416 1413 1410 1407 1403 1400 1397 1393 1390 1386 1382 1378 1374 1370 1365 1361 1356
1457 1458 1458 1458 1457 1457 1456 1454 1453 1451 1449 1447 1445 1443 1441 1438 1436 1434 1431 1429 1427 1425 1422 1419 1417 1414 1411 1408 1405 1402 1399 1395 1392 1388 1384 1380 1376 1372 1368 1364 1360 1355 1350
1453 1454 1454 1454 1454 1453 1452 1451 1449 1448 1446 1444 1442 1440 1437 1435 1433 1430 1428 1425 1423 1420 1418 1415 1412 1409 1407 1403 1400 1397 1394 1390 1387 1383 1379 1375 1371 1367 1363 1358 1354 1349 1344
1449 1450 1450 1450 1450 1449 1448 1447 1446 1444 1442 1440 1438 1436 1434 1431 1429 1426 1424 1421 1419 1416 1414 1411 1408 1405 1402 1398 1395 1392 1388 1385 1382 1378 1375 1370 1366 1361 1357 1352 1347 1343 1337